Content
SEND FEEDBACK

Daily
Averages
Monthly
Summary
United Kingdom

YORK, ENGLAND


Home > Europe > United Kingdom > England
Elevation: 27 feet     Latitude: 53 50N     Longitude: 001 11W

WEATHER
 
SELECT A DAY
Number of Records: 48,838;   Date Range: 6/27/01 - 12/19/13
 
SHARE

PRINT THIS DATA

[ ← Previous Day ]
WEATHER ALMANAC - JUNE 24, 2013
[ Next Day → ]
[ °C ]   °F
We're sorry. There is no daily almanac available for York, England on June 24, 2013.
WEATHER BY HOUR - JUNE 24, 2013
[ °C ]   °F
Local TimeTemperatureDewpointHumidityBarometerVisibilityWind DirectionWind SpeedGust SpeedPrecipitationEventsConditions
12:50 AM53.6 °F46.4 °F77 %29.92 in6.2 miWest (280°)13.8 mphOvercast
1:50 AM53.6 °F44.6 °F72 %29.92 in6.2 miWNW (290°)16.1 mphOvercast
2:50 AM53.6 °F44.6 °F72 %29.95 in6.2 miWNW (290°)13.8 mphMostly Cloudy
3:50 AM53.0 °F45.0 °F67 %29.99 in19.0 miWNW (290°)12.7 mphMostly Cloudy
3:50 AM53.6 °F44.6 °F72 %29.98 in6.2 miWNW (290°)12.7 mphMostly Cloudy
4:50 AM53.6 °F44.6 °F72 %30.01 in6.2 miWNW (290°)11.5 mphMostly Cloudy
5:50 AM53.6 °F44.6 °F72 %30.01 in6.2 miWest (280°)10.4 mphOvercast
6:50 AM53.6 °F46.4 °F77 %30.04 in6.2 miWest (280°)9.2 mphOvercast
6:50 AM53.0 °F46.0 °F68 %30.05 in19.0 miWest (280°)9.2 mph
7:50 AM53.6 °F46.4 °F77 %30.06 in6.2 miWest (280°)8.1 mphOvercast
8:50 AM53.6 °F44.6 °F72 %30.09 in6.2 miWNW (290°)8.1 mphOvercast
9:50 AM55.0 °F44.0 °F58 %30.11 in22.0 miWNW (290°)10.4 mphMostly Cloudy
9:50 AM55.4 °F44.6 °F67 %30.09 in6.2 miWNW (290°)10.4 mphMostly Cloudy
10:50 AM57.2 °F42.8 °F59 %30.12 in6.2 miNW (320°)13.8 mphMostly Cloudy
11:50 AM57.2 °F44.6 °F63 %30.12 in6.2 miWNW (300°)6.9 mphScattered Clouds
12:50 PM55.4 °F44.6 °F67 %30.15 in6.2 miNNW (340°)4.6 mphMostly Cloudy
12:50 PM55.0 °F45.0 °F61 %30.15 in22.0 miNNW (340°)4.6 mphRainRain
1:50 PM57.2 °F44.6 °F63 %30.15 in6.2 miNW (320°)3.5 mphMostly Cloudy
2:50 PM57.2 °F44.6 °F63 %30.15 in6.2 miWest (270°)9.2 mphMostly Cloudy
3:50 PM58.0 °F44.0 °F50 %30.18 in17.0 miWNW (290°)13.8 mphMostly Cloudy
3:50 PM59.0 °F44.6 °F59 %30.15 in6.2 miWNW (290°)13.8 mphMostly Cloudy
4:50 PM59.0 °F42.8 °F55 %30.18 in6.2 miWest (280°)13.8 mphOvercast
5:50 PM59.0 °F44.6 °F59 %30.18 in6.2 miWest (280°)15.0 mphOvercast
6:50 PM59.0 °F42.8 °F55 %30.18 in6.2 miWest (280°)13.8 mphOvercast
6:50 PM59.0 °F44.0 °F45 %30.21 in18.0 miWest (280°)13.8 mphOvercast
7:50 PM59.0 °F44.6 °F59 %30.21 in6.2 miWest (280°)12.7 mphOvercast
8:50 PM57.2 °F44.6 °F63 %30.21 in6.2 miWest (260°)9.2 mphOvercast
9:50 PM55.0 °F44.0 °F58 %30.26 in17.0 miWest (270°)10.4 mphOvercast
9:50 PM55.4 °F44.6 °F67 %30.24 in6.2 miWest (270°)10.4 mphOvercast
10:50 PM51.8 °F44.6 °F76 %30.24 in6.2 miWest (280°)8.1 mphMostly Cloudy
11:50 PM51.8 °F42.8 °F71 %30.27 in6.2 miWest (270°)6.9 mphMostly Cloudy
Hourly data recorded from EGXG, located miles away from York, England







STORIES FROM OUR PARTNERS